Torna al catalogo

THORAD DELTA 1 DEB

AttivoSSO
NORAD 9987·DEBRIS·🇺🇸 United States

Lanciato Nov 15, 1974 da Vandenberg Space Force Base

Loading…

Prossimi Passaggi (prossime 24 ore)

TLE

AggiornatoSource: Space-Track

Epoca: Sep 11, 2026, 07:33 UTC

1 09987U 74089EE  26254.31488374  .00000544  00000-0  36822-2 0  9994
2 09987 101.4752  26.1125 0097705 294.8790  92.8906 12.52320010360132

Traccia THORAD DELTA 1 DEB in tempo reale con AllMySat

Download on the App Store